TimeEST,TemperatureF,Dew PointF,Humidity,Sea Level PressureIn,VisibilityMPH,Wind Direction,Wind SpeedMPH,Gust SpeedMPH,PrecipitationIn,Events,Conditions,WindDirDegrees,DateUTC
12:55 AM,25.0,18.0,75,29.36,4.0,West,13.8,-,0.00,Snow,Light Snow,260,2013-01-20 05:55:00
1:07 AM,25.0,19.0,78,29.33,3.0,West,15.0,24.2,0.00,Snow,Light Snow,270,2013-01-20 06:07:00
1:55 AM,21.0,15.1,78,29.43,1.8,WNW,19.6,29.9,0.00,Snow,Light Snow,300,2013-01-20 06:55:00
2:17 AM,17.1,9.0,71,29.43,3.0,WNW,26.5,33.4,0.00,Snow,Light Snow,290,2013-01-20 07:17:00
2:36 AM,16.0,8.1,71,29.45,2.0,NW,20.7,34.5,0.00,Snow,Light Snow,320,2013-01-20 07:36:00
2:55 AM,12.9,5.0,71,29.53,2.5,NNW,18.4,28.8,0.00,Snow,Light Snow,330,2013-01-20 07:55:00
3:03 AM,12.0,3.9,70,29.51,3.0,NNW,13.8,28.8,0.00,Snow,Light Snow,340,2013-01-20 08:03:00
3:55 AM,8.1,-0.0,70,29.62,5.0,NNW,13.8,26.5,0.00,,Overcast,330,2013-01-20 08:55:00
4:44 AM,5.0,-2.9,70,29.65,10.0,NNW,12.7,20.7,0.00,,Partly Cloudy,340,2013-01-20 09:44:00
4:55 AM,5.0,-4.0,66,29.70,10.0,NNW,16.1,21.9,0.00,,Partly Cloudy,330,2013-01-20 09:55:00
5:55 AM,3.0,-7.1,63,29.79,10.0,NNW,10.4,24.2,N/A,,Clear,330,2013-01-20 10:55:00
6:55 AM,3.0,-6.0,66,29.85,10.0,NW,13.8,23.0,N/A,,Clear,320,2013-01-20 11:55:00
7:55 AM,1.9,-7.1,66,29.91,10.0,NNW,12.7,20.7,N/A,,Clear,340,2013-01-20 12:55:00
8:55 AM,3.0,-4.0,73,29.95,7.0,North,10.4,-,0.00,,Mostly Cloudy,10,2013-01-20 13:55:00
9:12 AM,3.0,-4.0,73,29.92,8.0,North,9.2,-,0.00,,Overcast,10,2013-01-20 14:12:00
9:47 AM,3.9,-4.0,70,29.96,10.0,North,9.2,-,0.00,,Mostly Cloudy,360,2013-01-20 14:47:00
9:55 AM,3.9,-4.0,70,30.01,10.0,North,8.1,-,0.00,,Scattered Clouds,350,2013-01-20 14:55:00
10:55 AM,5.0,-4.0,66,30.03,10.0,North,11.5,16.1,0.00,,Partly Cloudy,350,2013-01-20 15:55:00
11:55 AM,6.1,-4.0,63,30.04,10.0,NNW,10.4,-,0.00,,Mostly Cloudy,340,2013-01-20 16:55:00
12:55 PM,8.1,-2.0,64,30.04,5.0,NNW,9.2,-,0.00,,Haze,330,2013-01-20 17:55:00
1:05 PM,6.1,-2.9,67,30.00,2.0,NW,11.5,-,0.00,Snow,Light Snow,310,2013-01-20 18:05:00
1:16 PM,7.0,-2.0,67,30.00,5.0,NW,9.2,-,0.00,,Overcast,320,2013-01-20 18:16:00
1:55 PM,8.1,-0.9,67,30.03,3.0,NW,11.5,-,0.00,Snow,Light Snow,320,2013-01-20 18:55:00
2:05 PM,7.0,-0.9,70,29.99,2.0,NW,11.5,-,0.00,Snow,Light Snow,320,2013-01-20 19:05:00
2:15 PM,7.0,-2.0,67,29.99,4.0,NW,11.5,-,0.00,,Overcast,310,2013-01-20 19:15:00
2:35 PM,7.0,-0.9,70,30.00,1.8,NNW,10.4,-,0.00,Snow,Light Snow,330,2013-01-20 19:35:00
2:55 PM,7.0,-0.0,73,30.05,2.0,NW,11.5,-,0.00,Snow,Light Snow,320,2013-01-20 19:55:00
3:11 PM,8.1,1.0,73,30.01,1.2,NNW,9.2,-,0.00,Snow,Light Snow,330,2013-01-20 20:11:00
3:55 PM,8.1,1.0,73,30.06,1.0,NNW,10.4,-,0.00,Snow,Light Snow,340,2013-01-20 20:55:00
4:23 PM,9.0,1.9,73,30.02,0.8,NW,9.2,-,0.01,Snow,Light Snow,320,2013-01-20 21:23:00
4:30 PM,9.0,1.9,73,30.02,1.2,North,10.4,-,0.01,Snow,Light Snow,360,2013-01-20 21:30:00
4:55 PM,8.1,3.0,80,30.08,1.2,North,6.9,-,0.01,Snow,Light Snow,350,2013-01-20 21:55:00
5:19 PM,8.1,1.9,76,30.04,0.5,North,5.8,-,0.01,Snow,Snow,350,2013-01-20 22:19:00
5:30 PM,8.1,3.0,80,30.04,0.5,NNE,5.8,-,0.01,Snow,Snow,30,2013-01-20 22:30:00
5:47 PM,7.0,1.0,77,30.04,1.0,NE,5.8,-,0.02,Snow,Light Snow,40,2013-01-20 22:47:00
5:50 PM,6.8,1.4,79,30.04,0.8,NE,4.6,-,0.02,Snow,Light Snow,40,2013-01-20 22:50:00
5:55 PM,7.0,1.0,77,30.09,0.5,NE,5.8,-,0.03,Snow,Snow,50,2013-01-20 22:55:00
6:13 PM,7.0,1.0,77,30.04,1.5,NNE,5.8,-,0.01,Snow,Light Snow,30,2013-01-20 23:13:00
6:22 PM,6.1,1.0,80,30.05,0.5,NNE,6.9,-,0.02,Snow,Snow,30,2013-01-20 23:22:00
6:45 PM,6.1,-0.0,76,30.04,1.8,NNE,5.8,-,0.03,Snow,Light Snow,20,2013-01-20 23:45:00
6:55 PM,6.1,-0.0,76,30.09,1.2,North,5.8,-,0.03,Snow,Light Snow,10,2013-01-20 23:55:00
7:02 PM,6.1,-0.0,76,30.04,1.8,NNE,3.5,-,0.00,Snow,Light Snow,20,2013-01-21 00:02:00
7:07 PM,6.1,-0.0,76,30.04,3.0,NE,3.5,-,0.00,Snow,Light Snow,40,2013-01-21 00:07:00
7:15 PM,6.1,-0.0,76,30.04,2.0,NNE,3.5,-,0.00,Snow,Light Snow,30,2013-01-21 00:15:00
7:22 PM,6.1,-0.0,76,30.04,1.2,NNE,4.6,-,0.00,Snow,Light Snow,30,2013-01-21 00:22:00
7:55 PM,6.1,-0.9,73,30.11,2.5,Calm,Calm,-,0.01,Snow,Light Snow,0,2013-01-21 00:55:00
8:08 PM,6.1,-0.9,73,30.05,1.5,Calm,Calm,-,0.00,Snow,Light Snow,0,2013-01-21 01:08:00
8:38 PM,5.0,1.0,84,30.04,1.0,SSW,4.6,-,0.01,Snow,Light Snow,210,2013-01-21 01:38:00
8:52 PM,6.8,1.4,79,30.04,0.8,Calm,Calm,-,0.02,Snow,Light Snow,0,2013-01-21 01:52:00
8:55 PM,6.1,1.9,83,30.09,0.5,Calm,Calm,-,0.02,Fog-Snow,Snow,0,2013-01-21 01:55:00
9:20 PM,5.0,-0.0,80,30.04,1.0,ESE,3.5,-,0.01,Snow,Light Snow,110,2013-01-21 02:20:00
9:41 PM,5.0,-0.0,80,30.04,0.8,ESE,3.5,-,0.02,Snow,Light Snow,110,2013-01-21 02:41:00
9:55 PM,5.0,-0.0,80,30.09,1.0,ESE,3.5,-,0.03,Snow,Light Snow,110,2013-01-21 02:55:00
10:34 PM,3.9,-0.9,80,30.05,1.2,East,5.8,-,0.01,Snow,Light Snow,80,2013-01-21 03:34:00
10:55 PM,3.0,-2.0,80,30.09,1.8,East,4.6,-,0.01,Snow,Light Snow,100,2013-01-21 03:55:00
11:04 PM,3.0,-2.0,80,30.03,2.5,East,4.6,-,0.00,,Haze,100,2013-01-21 04:04:00
11:18 PM,1.9,-2.0,83,30.03,3.0,East,3.5,-,0.00,,Overcast,100,2013-01-21 04:18:00
11:55 PM,1.0,-4.0,79,30.08,4.0,East,4.6,-,0.00,,Haze,100,2013-01-21 04:55:00